Total_Precipitation_Accumulation
1.25 1.47 1.70 2.10 2.36 2.68 3.04 3.18 3.47 3.70 3.90 4.13 4.17 3.94 3.66 3.46 3.29 3.25 3.17 2.98 2.82 2.73 2.57 2.39 2.40 2.36 2.16 1.92 1.89 1.88 1.72 1.55 1.51 1.46 1.23 1.05 0.93 0.87 0.80 0.83 0.82 0.74 0.68
1.12 1.28 1.54 1.90 2.12 2.32 2.57 2.80 3.05 3.34 3.56 3.68 3.77 3.87 3.87 3.62 3.34 3.27 3.28 3.23 3.11 2.96 2.76 2.59 2.49 2.46 2.42 2.17 1.99 2.04 2.00 1.83 1.78 1.79 1.72 1.51 1.31 1.02 0.87 0.85 0.84 0.81 0.80
1.03 1.15 1.35 1.73 1.95 2.06 2.27 2.49 2.74 2.94 3.07 3.44 3.75 3.86 4.10 4.02 3.56 3.19 3.01 3.13 3.22 3.21 3.00 2.78 2.72 2.64 2.63 2.54 2.34 2.22 2.19 2.12 1.99 1.97 2.15 1.94 1.59 1.22 1.01 0.95 0.91 0.87 0.90
1.04 1.13 1.23 1.46 1.69 1.78 1.99 2.27 2.57 2.81 2.88 3.17 3.42 3.45 3.41 3.51 3.28 3.05 3.01 3.12 3.20 3.25 3.24 3.06 2.85 2.75 2.71 2.67 2.73 2.73 2.57 2.43 2.22 2.05 1.92 1.84 1.66 1.59 1.37 1.11 1.06 1.01 0.95
0.98 1.11 1.19 1.27 1.47 1.59 1.71 1.97 2.35 2.66 2.82 2.92 3.10 3.29 3.29 3.29 3.38 3.33 3.19 3.08 3.03 3.10 3.24 3.21 3.02 2.73 2.57 2.50 2.57 2.68 2.75 2.60 2.36 2.18 2.03 1.90 1.68 1.57 1.61 1.41 1.23 1.20 1.05
0.96 1.03 1.07 1.13 1.32 1.42 1.47 1.68 1.97 2.39 2.77 2.90 2.94 3.03 3.07 3.02 3.13 3.28 3.26 3.17 3.02 2.94 3.01 3.04 2.96 2.81 2.59 2.44 2.46 2.58 2.68 2.72 2.62 2.40 2.17 2.06 1.91 1.65 1.65 1.60 1.44 1.43 1.29
0.94 0.98 1.02 1.12 1.20 1.31 1.35 1.47 1.63 1.97 2.41 2.66 2.70 2.75 2.82 2.83 2.80 2.97 3.16 3.17 3.02 2.84 2.87 2.97 2.90 2.82 2.63 2.52 2.45 2.48 2.48 2.52 2.56 2.49 2.30 2.08 1.92 1.78 1.84 1.88 1.75 1.64 1.49
0.86 0.88 0.90 0.97 1.01 1.07 1.19 1.33 1.42 1.59 1.87 2.16 2.33 2.47 2.57 2.62 2.53 2.53 2.80 2.95 2.86 2.77 2.76 2.88 2.87 2.80 2.71 2.61 2.50 2.43 2.37 2.35 2.35 2.30 2.22 2.08 1.88 1.79 1.84 1.96 2.13 2.11 1.80
0.73 0.74 0.75 0.80 0.82 0.86 0.98 1.12 1.18 1.27 1.46 1.72 1.98 2.19 2.30 2.43 2.46 2.37 2.46 2.74 2.78 2.65 2.60 2.68 2.73 2.69 2.63 2.61 2.55 2.44 2.29 2.21 2.19 2.11 2.03 1.97 1.84 1.74 1.73 1.82 2.04 2.39 2.33
0.64 0.67 0.69 0.73 0.77 0.81 0.78 0.83 0.98 1.14 1.27 1.39 1.67 1.90 2.07 2.19 2.30 2.36 2.35 2.42 2.52 2.52 2.44 2.44 2.51 2.56 2.51 2.48 2.52 2.42 2.25 2.20 2.10 2.01 1.96 1.89 1.81 1.78 1.79 1.85 1.93 2.09 2.27
0.63 0.65 0.65 0.69 0.77 0.81 0.75 0.72 0.83 0.99 1.12 1.18 1.38 1.57 1.75 1.94 2.06 2.16 2.18 2.20 2.25 2.34 2.39 2.34 2.38 2.47 2.51 2.46 2.45 2.44 2.34 2.20 2.07 1.97 1.91 1.85 1.78 1.80 1.76 1.81 1.89 1.95 2.03
0.67 0.66 0.65 0.67 0.75 0.83 0.83 0.77 0.80 0.87 1.00 1.08 1.19 1.41 1.52 1.68 1.85 1.97 1.99 1.99 2.03 2.08 2.12 2.17 2.22 2.24 2.29 2.33 2.35 2.33 2.29 2.25 2.12 2.01 1.96 1.88 1.85 1.95 1.95 1.97 1.96 1.93 1.90
0.70 0.68 0.68 0.70 0.74 0.82 0.88 0.81 0.80 0.83 0.90 1.03 1.07 1.22 1.38 1.49 1.58 1.70 1.79 1.84 1.87 1.95 2.00 2.00 2.09 2.12 2.09 2.15 2.20 2.21 2.22 2.22 2.18 2.13 2.09 2.01 1.99 2.03 2.01 1.98 1.95 1.89 1.83
0.69 0.71 0.77 0.78 0.80 0.83 0.88 0.83 0.83 0.82 0.82 0.95 1.03 1.06 1.23 1.36 1.43 1.49 1.58 1.64 1.66 1.74 1.79 1.84 1.86 1.92 1.95 2.00 2.09 2.16 2.17 2.18 2.18 2.15 2.11 2.04 2.01 1.97 1.92 1.88 1.83 1.83 1.87
0.63 0.67 0.72 0.78 0.82 0.84 0.90 0.89 0.87 0.87 0.83 0.88 0.99 1.03 1.09 1.18 1.31 1.42 1.50 1.59 1.62 1.64 1.69 1.73 1.76 1.77 1.81 1.89 1.98 2.09 2.18 2.19 2.20 2.18 2.11 1.98 1.94 1.87 1.83 1.80 1.75 1.78 1.92
0.62 0.63 0.63 0.69 0.73 0.82 0.90 0.97 0.96 0.93 0.89 0.87 0.91 0.99 1.07 1.11 1.17 1.27 1.39 1.48 1.59 1.65 1.68 1.75 1.79 1.83 1.86 2.09 2.19 2.15 2.16 2.16 2.11 2.02 1.90 1.82 1.82 1.76 1.81 1.84 1.81 1.89 2.05
0.55 0.57 0.60 0.66 0.70 0.76 0.85 0.94 0.98 0.95 0.93 0.92 0.90 0.94 1.03 1.13 1.18 1.21 1.30 1.46 1.58 1.75 1.84 1.87 1.95 1.96 1.99 2.08 1.97 2.01 2.00 2.02 2.00 1.90 1.77 1.68 1.57 1.57 1.44 1.58 1.72 1.76 1.87
0.51 0.51 0.54 0.57 0.59 0.64 0.73 0.85 0.91 0.94 0.95 0.95 0.97 0.99 1.01 1.14 1.25 1.27 1.33 1.45 1.57 1.73 1.89 1.95 1.99 1.99 1.98 1.99 1.86 1.86 1.70 1.68 1.71 1.71 1.68 1.61 1.55 1.48 1.46 1.50 1.58 1.48 1.44
0.56 0.55 0.55 0.57 0.56 0.60 0.68 0.80 0.87 0.89 0.91 0.96 1.00 1.05 1.08 1.20 1.31 1.33 1.37 1.44 1.53 1.62 1.70 1.78 1.81 1.78 1.77 1.79 1.70 1.72 1.60 1.55 1.50 1.46 1.49 1.53 1.47 1.57 1.70 1.64 1.59 1.40 1.25
0.50 0.56 0.58 0.56 0.58 0.63 0.67 0.77 0.88 0.97 1.03 1.06 1.10 1.14 1.23 1.36 1.42 1.42 1.42 1.41 1.44 1.46 1.44 1.46 1.44 1.43 1.44 1.53 1.53 1.55 1.45 1.45 1.39 1.37 1.40 1.55 1.50 1.62 1.74 1.60 1.57 1.47 1.26
0.50 0.52 0.56 0.59 0.63 0.67 0.68 0.72 0.81 0.99 1.09 1.14 1.16 1.18 1.26 1.34 1.41 1.39 1.35 1.34 1.31 1.30 1.26 1.24 1.22 1.20 1.24 1.31 1.35 1.41 1.35 1.34 1.35 1.35 1.31 1.34 1.59 1.68 1.69 1.57 1.42 1.43 1.39
0.46 0.51 0.59 0.62 0.62 0.69 0.77 0.77 0.83 0.93 1.00 1.07 1.08 1.09 1.11 1.18 1.27 1.32 1.29 1.25 1.27 1.26 1.23 1.22 1.24 1.22 1.23 1.24 1.27 1.36 1.41 1.42 1.37 1.28 1.19 1.26 1.53 1.53 1.50 1.43 1.45 1.57 1.49
0.46 0.52 0.63 0.68 0.69 0.71 0.78 0.83 0.82 0.83 0.88 0.95 1.01 1.00 0.97 1.00 1.07 1.15 1.20 1.23 1.25 1.25 1.24 1.23 1.25 1.24 1.20 1.26 1.34 1.35 1.45 1.47 1.33 1.28 1.39 1.43 1.42 1.36 1.34 1.42 1.46 1.42 1.39
0.46 0.53 0.58 0.64 0.66 0.67 0.70 0.75 0.71 0.70 0.74 0.81 0.88 0.92 0.93 0.93 0.93 0.98 1.08 1.16 1.22 1.24 1.21 1.23 1.27 1.22 1.14 1.17 1.25 1.29 1.35 1.41 1.37 1.39 1.45 1.41 1.33 1.28 1.29 1.36 1.38 1.32 1.37
0.49 0.53 0.61 0.65 0.67 0.64 0.65 0.66 0.65 0.66 0.70 0.72 0.77 0.80 0.87 0.92 0.96 0.97 1.06 1.17 1.23 1.35 1.41 1.33 1.28 1.32 1.31 1.29 1.44 1.49 1.45 1.50 1.52 1.49 1.35 1.26 1.22 1.21 1.18 1.18 1.20 1.25 1.37
0.51 0.53 0.55 0.61 0.69 0.67 0.64 0.63 0.63 0.66 0.73 0.76 0.76 0.79 0.87 0.91 0.93 0.96 1.02 1.12 1.18 1.25 1.30 1.35 1.37 1.33 1.38 1.42 1.50 1.55 1.61 1.65 1.62 1.55 1.40 1.25 1.15 1.10 1.06 1.09 1.14 1.17 1.27